User: anonymous   Login
Location: Unspecified
(0.0000°N, 0.0000°E)
Time: 19:19:36
(UTC+00:00)
Language:

Transit 2A Rocket - Orbit

View from above orbital plane
View from above orbital plane
View from above satellite
View from above satellite

Ground track
Ground track

The orbit data is extracted from the following two-line orbital elements,

1    47U 60007C   20223.44929481 -.00000052 +00000-0 +13690-4 0  9995
2    47 066.6669 010.6218 0235413 263.9410 093.4825 14.42096008142465
Epoch (UTC): 10 August 2020 10:46:59
Eccentricity: 0.0235413
inclination: 66.6669°
perigee height: 584 km
apogee height: 919 km
right ascension of ascending node: 10.6218°
argument of perigee: 263.9410°
revolutions per day: 14.42096008
mean anomaly at epoch: 93.4825°
orbit number at epoch: 14246

The dashed part of the orbit path shows where the satellite is in the earth's shadow,  

DLR